Printer-friendly version

IAU Minor Planet Center

Minor Planet Center

MPEC 1999-M32: 1998 BU48

The following Minor Planet Electronic Circular may be linked-to from your own Web pages, but must not otherwise be redistributed electronically.


Read MPEC 1999-M31 Read MPEC 1999-M33


M.P.E.C. 1999-M32                                Issued 1999 June 25, 19:43 UT

     The Minor Planet Electronic Circulars contain information on unusual
         minor planets and routine data on comets.  They are published
   on behalf of Commission 20 of the International Astronomical Union by the
          Minor Planet Center, Smithsonian Astrophysical Observatory,
                          Cambridge, MA 02138, U.S.A.

             BMARSDEN@CFA.HARVARD.EDU or GWILLIAMS@CFA.HARVARD.EDU
          URL http://cfa-www.harvard.edu/iau/mpc.html  ISSN 1523-6714

                                   1998 BU48

Observations:
     J98B48U* C1998 01 22.32644 09 02 37.01 +16 51 44.6          21.8 V      691
     J98B48U  C1998 01 22.34868 09 02 36.88 +16 51 45.6          21.7 V      691
     J98B48U  C1998 01 22.37058 09 02 36.70 +16 51 46.4          21.8 V      691
     J98B48U  C1998 01 29.36643 09 01 44.45 +16 56 20.0          21.7 V      691
     J98B48U  C1998 01 29.38871 09 01 44.24 +16 56 21.1          21.7 V      691
     J98B48U  C1998 01 29.41514 09 01 44.06 +16 56 21.5          21.3 V      691
     J98B48U  C1998 02 03.34628 09 01 06.85 +16 59 35.5          21.7 V      691
     J98B48U  C1998 02 03.36828 09 01 06.67 +16 59 36.4          21.8 V      691
     J98B48U  C1998 02 03.39061 09 01 06.53 +16 59 37.3          21.8 V      691

Observer details:
691 Steward Observatory, Kitt Peak.  Observer N. Danzl, for the
    Spacewatch Outer Solar System Survey.  0.9-m Spacewatch telescope.

Orbital elements:
1998 BU48
Eccentricity assumed
Epoch 1998 Jan. 27.0 TT = JDT 2450840.5                 Marsden
M 272.92532              (2000.0)            P               Q
n   0.00767844     Peri.  117.56730     -0.30914992     +0.92750523
a  25.4460596      Node   132.77585     -0.94184649     -0.26799543
e   0.2742920      Incl.   16.63615     -0.13172516     -0.26060025
P 128              H    7.4           G   0.15
From 9 observations 1998 Jan. 22-Feb. 3.

Brian G. Marsden             (C) Copyright 1999 MPC           M.P.E.C. 1999-M32

Read MPEC 1999-M31 Read MPEC 1999-M33


Our Web policy. Index to the CBAT/MPC/ICQ pages.


Valid HTML 4.01!